Torna al catalogo

STARLINK-5444

AttivoComunicazioniVLEO
NORAD 54768·PAYLOAD·🇺🇸 United States

Lanciato Dec 17, 2022 da Cape Canaveral Space Force Station

Loading…

Prossimi Passaggi (prossime 24 ore)

TLE

AggiornatoSource: CelesTrak SupGP

Epoca: Sep 14, 2026, 22:23 UTC

1 54768C 22175L   26257.93312500  .00031179  00000+0  10026-2 0  2570
2 54768  53.1574 245.7777 0001296  96.6321  15.5847 15.31686022    16

Traccia STARLINK-5444 in tempo reale con AllMySat

Download on the App Store